www.pogodaiklimat.ru

Погода и климат >> Архив погоды >> Иран >> Остров Киш


ПОГОДА на Острове Киш

  • Прогноз погоды на Острове Киш
  • Монитор погоды на Острове Киш

АРХИВ ПОГОДЫ на Острове Киш

Время (UTC), дата Ветер
(напр.,м/с)
 
Видим.   Явления Облачность Т
(С)
Тd
(С)
f
(%)
Тe
(С)
Тes
(С)
Комфортность P
(гПа)
Po
(гПа)
Тmin
(С)
Tmax
(С)
R
(мм)
R24
(мм)
S
(см)
15 9.09 ЮЗ 3 6000 м мгла 3/0
[Ci fib]
+33.2 +27.2 71 +52 +52 опасность
перегрева
999.4 996.1 +36.6 666
18 9.09 штиль 0 5000 м мгла ясно +31.6 +27.1 77 +50 +50 опасность
перегрева
1000.3 997.0
21 9.09 штиль 0 4000 м дымка ясно +30.6 +27.3 83 +49 +49 опасность
перегрева
1000.0 996.7
00 10.09 штиль 0 3000 м дымка ясно +30.4 +28.0 87 +50 +50 опасность
перегрева
999.3 996.0
03 10.09 штиль 0 4000 м дымка ясно +30.4 +27.4 84 +49 +50 опасность
перегрева
1001.0 997.7 +29.8
06 10.09 В 6 7000 м мгла 1/1 750 м
[Cu hum]
+34.2 +27.4 68 +53 +58 опасность
перегрева
1002.7 999.4
09 10.09 ЮВ 5 7000 м мгла ясно +36.0 +27.5 62 +55 +65 опасность
перегрева
1001.2 997.9 666
12 10.09 ЮЗ 4 7000 м мгла ясно +35.4 +28.0 66 +56 +61 опасность
перегрева
999.7 996.4
15 10.09 З 3 8000 м мгла 1/0
[Ci fib]
+33.6 +27.4 70 +53 +53 опасность
перегрева
999.7 996.4 +36.6 666
18 10.09 СЗ 2 8000 м мгла ясно +33.0 +28.2 76 +54 +54 опасность
перегрева
1000.6 997.3
21 10.09 СЗ 3 8000 м дымка ясно +32.2 +28.7 82 +55 +55 опасность
перегрева
1000.0 996.8
00 11.09 В 2 4000 м дымка ясно +30.8 +28.6 88 +52 +52 опасность
перегрева
1000.1 996.8
03 11.09 В 3 4000 м дымка ясно +31.6 +30.0 91 +58 +58 опасность
перегрева
1002.1 998.8 +30.4 666
06 11.09 В 5 7000 м мгла ясно +35.6 +25.2 55 +49 +56 опасность
перегрева
1004.2 1001.0
09 11.09 ЮВ 5 8000 м мгла ясно +38.0 +20.2 36 +44 +54 опасность
перегрева
1003.2 1000.0 666
12 11.09 ЮЗ 4 8000 м мгла ясно +37.4 +20.6 38 +44 +48 опасность
перегрева
1001.3 998.0
15 11.09 З 4 3000 м дымка ясно +34.0 +30.3 81 +62 +62 опасность
перегрева
1002.1 998.8 +38.4 666
18 11.09 СЗ 2 3000 м дымка ясно +33.0 +29.6 82 +58 +58 опасность
перегрева
1003.2 1000.0
21 11.09 ЮЗ 2 3000 м дымка ясно +31.2 +28.8 87 +54 +54 опасность
перегрева
1002.2 999.0
00 12.09 штиль 0 3000 м дымка ясно +30.8 +28.9 90 +54 +54 опасность
перегрева
1002.0 998.8
03 12.09 СЗ 2 5000 м дымка ясно +30.6 +29.0 91 +53 +54 опасность
перегрева
1002.9 999.6 +30.2 666
06 12.09 ЮВ 4 4000 м мгла 3/3 600 м
[St]
+34.6 +28.4 70 +56 +62 опасность
перегрева
1005.4 1002.1
09 12.09 ЮВ 4 3000 м мгла ясно +36.6 +26.8 57 +54 +66 опасность
перегрева
1003.6 1000.4 666
12 12.09 ЮЗ 3 3000 м мгла ясно +36.8 +26.7 56 +54 +59 опасность
перегрева
1002.3 999.0
15 12.09 З 4 5000 м мгла 1/0
[Ci fib]
+34.0 +28.9 75 +57 +57 опасность
перегрева
1002.3 999.0 +37.4 666
18 12.09 З 3 3000 м дымка ясно +32.6 +29.7 85 +58 +58 опасность
перегрева
1003.1 999.9
21 12.09 СЗ 2 3000 м дымка ясно +31.4 +29.0 87 +54 +54 опасность
перегрева
1002.1 998.9
00 13.09 ЮВ 2 3000 м дымка ясно +30.8 +29.2 91 +54 +54 опасность
перегрева
1001.8 998.6
03 13.09 В 2 5000 м дымка 1/1 900 м
[Sc]
+31.2 +28.9 88 +54 +55 опасность
перегрева
1003.9 1000.6 +30.6 666
06 13.09 ЮВ 5 5000 м мгла 1/1 900 м
[Sc]
+34.6 +27.8 68 +55 +61 опасность
перегрева
1005.6 1002.3
09 13.09 ЮВ 5 4000 м мгла 3/3 900 м
[Sc]
+35.6 +27.5 63 +55 +61 опасность
перегрева
1004.5 1001.2 666
12 13.09 ЮЗ 5 4000 м мгла ясно +36.0 +26.4 58 +53 +56 опасность
перегрева
1003.1 999.8
15 13.09 З 4 5000 м мгла ясно +33.6 +27.0 68 +51 +51 опасность
перегрева
1003.3 1000.0 +36.4 666
18 13.09 СЗ 5 4000 м дымка ясно +32.4 +28.5 80 +54 +54 опасность
перегрева
1004.0 1000.8
21 13.09 СЗ 3 4000 м мгла ясно +32.0 +27.1 75 +50 +50 опасность
перегрева
1002.9 999.7
00 14.09 СЗ 3 4000 м дымка ясно +31.4 +28.0 82 +52 +52 опасность
перегрева
1002.3 999.1
03 14.09 В 2 5000 м дымка ясно +29.8 +28.0 90 +49 +50 опасность
перегрева
1004.2 1000.9 +29.6 666
06 14.09 ЮВ 5 5000 м мгла 1/1 900 м
[Cu hum]
+34.2 +27.4 68 +53 +59 опасность
перегрева
1006.0 1002.6
09 14.09 Ю 5 6000 м мгла 3/3 900 м
[Cu hum]
+35.4 +26.5 60 +52 +59 опасность
перегрева
1005.1 1001.8 666
12 14.09 ЮЗ 3 7000 м мгла ясно +35.2 +24.7 55 +48 +54 опасность
перегрева
1003.6 1000.3
15 14.09 З 2 8000 м мгла ясно +32.6 +24.4 62 +45 +45 опасность
перегрева
1004.1 1000.7 +36.0
18 14.09 СЗ 2 6000 м мгла ясно +31.4 +25.7 72 +46 +46 опасность
перегрева
1004.9 1001.6
21 14.09 З 2 6000 м дымка ясно +30.4 +26.5 80 +47 +47 опасность
перегрева
1004.1 1000.8
00 15.09 ЮВ 3 5000 м дымка ясно +29.8 +27.0 85 +47 +47 опасность
перегрева
1003.8 1000.5
03 15.09 В 2 6000 м дымка ясно +29.4 +27.1 87 +46 +47 опасность
перегрева
1005.5 1002.2 +29.4
06 15.09 ЮВ 7 6000 м мгла 3/3 900 м
[Cu hum]
+35.0 +29.4 73 +60 +62 опасность
перегрева
1007.6 1004.3
09 15.09 Ю 4 4000 м мгла ясно +36.6 +28.9 65 +60 +72 опасность
перегрева
1006.5 1003.2
12 15.09 ЮЗ 3 5000 м мгла ясно +36.8 +28.1 61 +57 +63 опасность
перегрева
1004.7 1001.4
15 15.09 СЗ 3 5000 м мгла 1/0
[Ci fib]
+33.6 +26.9 68 +51 +51 опасность
перегрева
1005.3 1001.9 +37.2
18 15.09 СЗ 3 5000 м дымка ясно +32.4 +28.8 81 +55 +55 опасность
перегрева
1006.1 1002.8
21 15.09 штиль 0 3000 м дымка ясно +31.2 +28.9 88 +54 +54 опасность
перегрева
1005.3 1002.0
00 16.09 штиль 0 3000 м дымка ясно +30.4 +28.8 91 +52 +52 опасность
перегрева
1005.0 1001.7
03 16.09 ЮВ 2 4000 м дымка 1/1 900 м
[Sc]
+30.2 +28.6 91 +51 +52 опасность
перегрева
1006.8 1003.4 +29.6
06 16.09 ЮВ 4 6000 м мгла 3/3 900 м
[Sc]
+34.6 +28.3 70 +56 +62 опасность
перегрева
1008.2 1004.9
09 16.09 ЮВ 4 7000 м мгла ясно +36.2 +26.3 57 +52 +64 опасность
перегрева
1007.1 1003.8 666

 

Местоположение метеостанции Остров Киш (Иран): широта 26.50 долгота 53.98 высота над уровнем моря 30 м.

В архиве по умолчанию представлена погода на Острове Киш за последнюю неделю. Архивные данные за месяц целиком и за предыдущие месяцы, начиная с января 2011 года, Вы можете получить, выбрав интересующий диапазон дат из раскрывающегося списка и нажав кнопку "Ввод!".


*Определитесь, кто Вы:
робот инопланетянин человек

Внимание! Время в таблицах - всемирное. Для получения местного времени необходимо прибавить поправку, которая равна 3.5 ч.

Смотрите также архив погоды в соседних городах и на ближайших метеорологических станциях:

Погода в Бендер-Ленге (Иран) (85 км)
Погода на Острове Сирри (Иран) (87 км)
Погода на Острове Абу-Муса (Иран) (113 км)
Погода в Дубае (ОАЭ) (194 км)
Погода в Шардже (ОАЭ) (202 км)
Погода в Аль-Мактум аэропорту (ОАЭ) (214 км)
Погода в Рай-эль-Хайма аэропорту (ОАЭ) (218 км)
Погода в Эль-Хасаб аэропорту (Оман) (227 км)
Погода в Эль-Хасабе (Оман) (228 км)
Погода в Абу-Даби Батин аэропорту (ОАЭ) (235 км)

Пояснения к столбцам:

Ветер - указаны скорость ветра в м/с - средняя за 10 мин, порывы в срок и между сроками (в фигурных скобках) и направление, откуда дует ветер: С - северный, СВ - северо-восточный, В - восточный, ЮВ - юго-восточный, Ю - южный, ЮЗ - юго-западный, З - западный, СЗ - северо-западный.
Видимость - горизонтальная дальность видимости в метрах или километрах. При видимости от 1 до 10 км при отсутствии осадков обычно наблюдается дымка, при ухудшении видимости до 1 км и менее - туман. В сухую погоду видимость может ухудшаться дымом, пылью или мглою.
Явления - указаны атмосферные явления, наблюдавшиеся в срок или в последний час перед сроком; фигурными скобками обозначены явления, наблюдавшиеся между сроками (за 1-3 часа до срока); квадратными скобками обозначены град или гололедные отложения с указанием их диаметра в мм.
Облачность - указаны через наклонную черту общая и нижняя облачность в баллах и высота нижней границы облаков в метрах; квадратными скобками обозначены формы облаков: Ci - перистые, Cs - перисто-слоистые, Cc - перисто-кучевые, Ac - высококучевые, As - высокослоистые, Sc - слоисто-кучевые, Ns - слоисто-дождевые, Cu - кучевые, Cb - кучево-дождевые. Подробнее классификацию облаков см. в Атласе облаков (PDF).
T - Температура воздуха - температура, измеренная на высоте 2 м над землей.
Td - Температура точки росы - температура, при понижении до которой содержащийся в воздухе водяной пар достигнет насыщения.
f - Относительная влажность воздуха - влажноcть воздуха, измеренная на высоте 2 м над землей.
Te - Эффективная температура - температура, которую ощущает одетый по сезону человек в тени. Характеристика душности погоды. При расчете учитывается влияние влажности воздуха и скорости ветра на теплоощущения человека.
Tes - Эффективная температура на солнце - температура, которую ощущает человек, с поправкой на солнечный нагрев. Характеристика знойности погоды. Зависит от высоты солнца над горизонтом, облачности и скорости ветра. Ночью, в пасмурную погоду, а также при ветре 12 м/с и более поправка равна нулю.
P - Атмосферное давление - приведенное к уровню моря атмосферное давление.
Po - Атмосферное давление - измеренное на уровне метеостанции атмосферное давление.
Tmin - Минимальная температура - минимум температуры воздуха на высоте 2 м над землей.
Tmax - Максимальная температура - максимум температуры воздуха на высоте 2 м над землей.
R - Количество осадков - Количество выпавших осадков за период времени, мм. При наведении курсора мыши на число - период времени, за который выпало указанное количество осадков.
R24 - Количество осадков - Количество выпавших осадков за 24 часа, мм.
S - Снежный покров - Высота снежного покрова, см. При наведении курсора мыши на число - состояние снежного покрова и степень покрытия местности в баллах.